Dyersburg, TN

12:51 AM CST on December 06, 2019 (GMT -0600)
Dyersburg Municipal

Weather History for KDYR - October, 2019

Change the Weather History Date:

Wednesday, October 16, 2019

  Actual Average Record
Temperature  
Mean Temperature 56 °F -  
Max Temperature 63 °F 68 °F 84 °F (1998)
Min Temperature 45 °F 47 °F 39 °F (2010)
Degree Days  
Heating Degree Days 10    
Growing Degree Days 6 (Base 50)    
Moisture  
Dew Point 46 °F    
Average Humidity 72    
Maximum Humidity 100    
Minimum Humidity 51    
Precipitation  
Precipitation 0.09 in - - ()
Sea Level Pressure  
Sea Level Pressure 30.05 in    
Wind  
Wind Speed 8 mph ()    
Max Wind Speed 16 mph    
Max Gust Speed 23 mph    
Visibility 10.0 miles    
Events Rain    
Averages and records for this station are not official NWS values.
T = Trace of Precipitation, MM = Missing Value Source: Averaged Metar Reports

Daily Weather History Graph

Daily Weather History Graph

Search for Another Location

Airport or City:

Astronomy

Oct. 16, 2019 Rise Set
Actual Time 7:05 AM CDT 6:20 PM CDT
Civil Twilight 6:39 AM CDT 6:46 PM CDT
Nautical Twilight 6:09 AM CDT 7:16 PM CDT
Astronomical Twilight 5:39 AM CDT 7:45 PM CDT
Moon 8:18 PM CDT (10/16) 9:32 AM CDT (10/16)
Length of Visible Light 12h 07m
Length of Day
11h 15m
Waning Gibbous, 92% of the Moon is Illuminated
Oct 16
Waning Gibbous
Oct 21
Last Quarter
Oct 27
New
Nov 4
First Quarter
Nov 12
Full

Hourly Weather History & Observations

Time (CDT) Temp. Dew Point Humidity Pressure Visibility Wind Dir Wind Speed Gust Speed Precip Events Conditions
12:51 AM 62.6 °F 62.6 °F 100% 29.89 in 10.0 mi NW 3.5 mph - 0.08 in Rain Light Rain
12:56 AM 62.1 °F 62.1 °F 100% 29.90 in 10.0 mi West 4.6 mph - 0.08 in Rain Light Rain
1:15 AM 62.6 °F 62.6 °F 100% 29.89 in 10.0 mi WNW 8.1 mph - 0.00 in   Overcast
1:56 AM 63.0 °F 61.0 °F 93% 29.92 in 10.0 mi NNW 15.0 mph 20.7 mph 0.00 in   Overcast
2:08 AM 60.8 °F 57.2 °F 88% 29.91 in 10.0 mi NNW 16.1 mph 23.0 mph 0.01 in   Overcast
2:56 AM 60.1 °F 52.0 °F 75% 29.95 in 10.0 mi NNW 16.1 mph 21.9 mph 0.01 in   Overcast
3:56 AM 57.0 °F 46.9 °F 69% 29.97 in 10.0 mi North 15.0 mph 20.7 mph N/A   Overcast
4:56 AM 53.1 °F 43.0 °F 69% 30.01 in 10.0 mi North 15.0 mph 23.0 mph N/A   Clear
5:56 AM 51.1 °F 39.0 °F 63% 30.03 in 10.0 mi North 9.2 mph 18.4 mph N/A   Clear
6:56 AM 48.0 °F 37.9 °F 68% 30.06 in 10.0 mi NNW 13.8 mph - N/A   Clear
7:56 AM 48.0 °F 39.0 °F 71% 30.08 in 10.0 mi NNW 5.8 mph - N/A   Clear
8:56 AM 51.1 °F 39.0 °F 63% 30.10 in 10.0 mi North 11.5 mph - N/A   Clear
9:56 AM 53.1 °F 39.9 °F 61% 30.13 in 10.0 mi NNW 8.1 mph 16.1 mph N/A   Clear
10:56 AM 55.0 °F 41.0 °F 59% 30.12 in 10.0 mi North 10.4 mph - N/A   Clear
11:56 AM 57.9 °F 42.1 °F 56% 30.13 in 10.0 mi NNW 11.5 mph - N/A   Clear
12:56 PM 60.1 °F 42.1 °F 51% 30.12 in 10.0 mi Variable 4.6 mph - N/A   Clear
1:56 PM 60.1 °F 42.1 °F 51% 30.11 in 10.0 mi WNW 10.4 mph - N/A   Clear
2:56 PM - - N/A% - - North - - N/A   Unknown
3:56 PM 61.0 °F 43.0 °F 52% 30.10 in 10.0 mi NW 8.1 mph - N/A   Unknown
4:56 PM 60.1 °F 42.1 °F 51% 30.11 in 10.0 mi NW 9.2 mph - N/A   Clear
5:56 PM 59.0 °F 43.0 °F 55% 30.10 in 10.0 mi NW 4.6 mph - N/A   Clear
6:56 PM 52.0 °F 46.0 °F 80% 30.11 in 10.0 mi Calm Calm - N/A   Clear
7:56 PM 48.9 °F 45.0 °F 86% 30.09 in 10.0 mi Calm Calm - N/A   Clear
8:56 PM 51.1 °F 44.1 °F 77% 30.10 in 10.0 mi NNE 9.2 mph - N/A   Clear
9:56 PM 50.0 °F 42.1 °F 74% 30.11 in 10.0 mi NE 6.9 mph - N/A   Clear
10:56 PM 48.0 °F 41.0 °F 77% 30.14 in 10.0 mi NE 5.8 mph - N/A   Clear
11:56 PM 45.0 °F 41.0 °F 86% 30.14 in 10.0 mi Calm Calm - N/A   Clear